Regional Weather Roundup
Issued by NWS Memphis, TN

Home | Current Version | Previous Version | Text Only | Print | Product List | Glossary On
Versions: 1 2 3 4 5 6 7 8 9 10 11 12 13 14 15 16 17 18 19 20 21 22 23 24 25 26 27 28 29 30 31 32 33 34 35 36 37 38 39 40 41 42 43 44 45 46 47 48 49 50
883
ASUS44 KMEG 211310
RWRMEG
MEMPHIS CWA HOURLY WEATHER ROUNDUP
NATIONAL WEATHER SERVICE MEMPHIS TN
700 AM CST WED FEB 21 2018

...WEST TENNESSEE...

CITY           SKY/WX    TMP DP  RH WIND       PRES   REMARKS
MEMPHIS INTL   RAIN      54  53  97 N12       30.28R FOG
NWS MEMPHIS      N/A     55 N/A N/A MISG        N/A
JACKSON        RAIN      58  57  97 N8        30.28R FOG
COVINGTON      CLOUDY    48  46  93 N15       30.33R FOG
SOMERVILLE     CLOUDY    59  57  94 N10       30.26R FOG
BOLIVAR        CLOUDY    57  57 100 N9G17     30.26R FOG
LEXINGTON      CLOUDY    59  57  94 N9G17     30.25R FOG
SAVANNAH       CLOUDY    70  66  88 S10G18    30.23R
DYERSBURG      LGT RAIN  44  43  96 N12       30.34R
UNION CITY     CLOUDY    45  43  93 N15       30.32R
PARIS          CLOUDY    50  50 100 N14G23    30.29R FOG


...EASTERN ARKANSAS...

CITY           SKY/WX    TMP DP  RH WIND       PRES   REMARKS
JONESBORO      LGT RAIN  45  45 100 NW3       30.38R
WEST MEMPHIS   RAIN      51  32  48 N15       30.29R
BATESVILLE     LGT RAIN  38  37  97 NW7       30.38R WCI  33
NEWPORT        RAIN      41  39  93 N13       30.36R
WALNUT RIDGE   RAIN      39  37  92 N18       30.36R WCI  30
BLYTHEVILLE    RAIN      42  32  67 N23       30.36R
SEARCY         RAIN      42  42 100 N15       30.33R
STUTTGART      LGT RAIN  48  46  93 NE23      30.29S
PINE BLUFF     LGT RAIN  53  53 100 N13       30.25R
MONTICELLO     CLOUDY    61  54  77 N15G30    30.21R


...NORTH MISSISSIPPI...

CITY           SKY/WX    TMP DP  RH WIND       PRES   REMARKS
TUPELO         CLOUDY    68  65  90 S8        30.24R
OXFORD         CLOUDY    66  64  94 S6G13     30.23R
BATESVILLE       N/A    N/A N/A N/A MISG        N/A
OLIVE BRANCH   RAIN      55  55 100 N10       30.26  FOG
TUNICA         LGT RAIN  54  54 100 N17       30.28R
CLARKSDALE     CLOUDY    61  61 100 N20G26    30.26R
CORINTH        CLOUDY    70  64  83 S9G16     30.23R
GREENWOOD      FAIR      70  67  90 S9        30.21R
COLUMBUS       MOCLDY    70  70  98 S9        30.26R
STARKVILLE     MOCLDY    68  64  88 S7        30.27R
GOLDEN TRIANGL CLOUDY    69  67  93 S9        30.28R


...SOUTHEAST MISSOURI...

CITY           SKY/WX    TMP DP  RH WIND       PRES   REMARKS
KENNETT        CLOUDY    43  41  93 N14G25    30.37R
MALDEN         LGT RAIN  41  36  81 N10       30.37R
WEST PLAINS    CLOUDY    32  30  92 N9        30.38R WCI  24
POPLAR BLUFF   LGT RAIN  38  35  89 N13       30.39R WCI  30
CAPE GIRARDEAU MIX PCPN  36  33  89 N15       30.39R WCI  27


...NORTHWEST ALABAMA...

CITY           SKY/WX    TMP DP  RH WIND       PRES   REMARKS
MUSCLE SHOALS  MOCLDY    69  64  84 S10       30.27R


...MIDDLE TENNESSEE...

CITY           SKY/WX    TMP DP  RH WIND       PRES   REMARKS
NASHVILLE      MOCLDY    71  62  73 SW15G26   30.26R
CLARKSVILLE    LGT RAIN  55  52  89 N13       30.27R
COLUMBIA       MOCLDY    68  68 100 S14G21    30.24R


...WESTERN KENTUCKY...

CITY           SKY/WX    TMP DP  RH WIND       PRES   REMARKS
PADUCAH        LGT RAIN  39  35  86 N14G23    30.34R WCI  31
FORT CAMPBELL  DRIZZLE   54  54 100 N8        30.29


...CENTRAL ARKANSAS...

CITY           SKY/WX    TMP DP  RH WIND       PRES   REMARKS
LITTLE ROCK    HVY RAIN  47  47 100 N9        30.30R FOG


SKY/WX REPORTED AS FAIR MEANS FEW OR NO CLOUDS BELOW
12 THOUSAND FEET.





USA.gov is the U.S. government's official web portal to all federal, state and local government web resources and services.